This is the latest recevied weather packets stored in our database for station/object PP5FMM-13. If no packets are shown the sender has not sent any weather packets the latest 10 day(s).
| Time | Temp. | Humidity | Pressure | Rain* | Wind** | Luminosity | Snow |
|---|---|---|---|---|---|---|---|
| 1777855832 | 24.44° C | 75% | 1022.3 hPa | - | - | - | - |
| 1777855532 | 24.44° C | 75% | 1022.3 hPa | - | - | - | - |
| 1777855232 | 24.44° C | 75% | 1022.3 hPa | - | - | - | - |
| 1777854932 | 24.44° C | 75% | 1022.3 hPa | - | - | - | - |
| 1777854632 | 24.44° C | 76% | 1022.3 hPa | - | - | - | - |
| 1777854332 | 24.44° C | 73% | 1022.4 hPa | - | - | - | - |
| 1777854032 | 24.44° C | 73% | 1022.4 hPa | - | - | - | - |
| 1777853732 | 24.44° C | 72% | 1022.5 hPa | - | - | - | - |
| 1777853432 | 24.44° C | 71% | 1022.4 hPa | - | - | - | - |
| 1777853132 | 24.44° C | 72% | 1022.4 hPa | - | - | - | - |
| 1777852832 | 24.44° C | 71% | 1022.4 hPa | - | - | - | - |
| 1777852532 | 24.44° C | 70% | 1022.4 hPa | - | - | - | - |
| 1777852232 | 24.44° C | 70% | 1022.4 hPa | - | - | - | - |
| 1777851932 | 24.44° C | 70% | 1022.3 hPa | - | - | - | - |
| 1777851632 | 23.89° C | 70% | 1022.2 hPa | - | - | - | - |
| 1777851332 | 23.89° C | 68% | 1022.2 hPa | - | - | - | - |
| 1777851032 | 23.89° C | 68% | 1022.2 hPa | - | - | - | - |
| 1777850732 | 23.89° C | 69% | 1022.2 hPa | - | - | - | - |
| 1777850432 | 23.89° C | 69% | 1022.3 hPa | - | - | - | - |
| 1777850132 | 23.89° C | 69% | 1022.3 hPa | - | - | - | - |
| 1777849832 | 23.89° C | 70% | 1022.3 hPa | - | - | - | - |
| 1777849532 | 23.89° C | 68% | 1022.1 hPa | - | - | - | - |
| 1777849232 | 24.44° C | 69% | 1022.1 hPa | - | - | - | - |
| 1777848934 | 24.44° C | 70% | 1022.2 hPa | - | - | - | - |
| 1777848632 | 24.44° C | 72% | 1022.2 hPa | - | - | - | - |
* Rain since midnight (hover to see other rain measurements)
** Current wind speed in m/s (hover to see current wind gust speed)